星链-33576 (STARLINK-33576)

导读 | 豆包AI

STARLINK-33576是美国于2025年1月21日发射的星链卫星,归属于SpaceX星链星座项目,该项目旨在搭建全球卫星互联网,为地面偏远地区等场景提供宽带网络接入服务。星链系统通过大规模低轨卫星组网,持续补充发射卫星扩展星座覆盖与服务能力,该星加入后将进一步完善星座的通信服务能力。

Basic Information
目录编号:
62775
目录名称:
STARLINK-33576
国际标识:
2025-015T
轨道中心:
EARTH
卫星名称:
星链-33576
卫星全名:
星链-33576 (STARLINK-33576)
卫星状态:
在轨 (已飞行463 天)
发射日期:
2025-01-21 UTC
国别 :
美国 (US)
星等 :
--
Orbit Information
数据来源 国际轨道数据 AOE轨道数据
星历时间 2026-04-29T16:00:02+0800
15小时前
查看轨道信息
2026-04-29T17:00:00+0800
14小时前
查看轨道信息
半长轴 6853.454km 6853.384km
偏心率 0.0001214 0.0000983
轨道倾角 53.157° 53.157°
近地点辐角 85.590° 90.247°
升交点赤经 87.315° 87.119°
平近点角 272.957° 137.812°
近地点 474.484km 474.573km
远地点 476.15km 475.921km
周期 94.107分钟 94.106分钟
每日圈数 15.301661 15.301894
Detailed Information
固有亮度:
5
最大亮度:
2.5
卫星平台:
Starlink V1.0
覆盖范围:
全球
运营商:
太空探索技术公司
运营商所在国:
美国
制造商(研发单位):
太空探索技术公司
制造商所在国:
美国
使用方式:
暂无
Satellite Introduction
Starlink 计划是 SpaceX 推出的全球卫星互联网项目,通过发射低轨道卫星,为全球尤其是偏远地区提供高速、低延迟的互联网服务。自 2019 年起,Starlink 已部署数千颗卫星,旨在缩小全球数字鸿沟,推动互联网普及。该项目还为军事、航空等行业提供通信支持,带来广泛经济效益。
2D Orbit Map
3D Orbit Map
Orbit Altitude Analysis Chart
Orbit Inclination Analysis Chart
Orbit Comprehensive Analysis Chart
View Comprehensive Chart